Regional Weather Roundup
Issued by NWS

Home | Current Version | Previous Version | Graphics & Text | Print | Product List | Glossary On
Versions: 1 2 3 4 5 6 7 8 9 10 11 12 13 14 15 16 17 18 19 20 21 22 23 24 25 26 27 28 29 30 31 32 33 34 35 36 37 38 39 40 41 42 43 44 45 46 47 48 49 50
000
ASUS43 KMPX 272001
RWRMN
WEATHER ROUNDUP FOR MINNESOTA
NATIONAL WEATHER SERVICE TWIN CITIES/CHANHASSEN MN
200 PM CST SAT DEC 27 2014


NOTE: "FAIR" INDICATES FEW OR NO CLOUDS BELOW 12,000 FEET WITH NO
SIGNIFICANT WEATHER AND/OR OBSTRUCTIONS TO VISIBILITY. N/A MEANS
CURRENT SKY AND/OR WEATHER CONDITIONS ARE NOT AVAILABLE.

MNZ060>063-068>070-272100-
   Twin Cities Metro

CITY           SKY/WX    TMP DP  RH WIND       PRES   REMARKS
TWIN CITIES    MOSUNNY   25  15  66 W12       30.07F WCI  14
ST PAUL        SUNNY     25  15  66 NW9       30.09S WCI  15
CRYSTAL        SUNNY     25  14  63 W12       30.07S WCI  14
BLAINE         SUNNY     27  18  69 W10       30.06S WCI  17
LAKEVILLE      SUNNY     21  16  79 W10       30.08S WCI  10
EDEN PRAIRIE   SUNNY     23  14  68 W14       30.08R WCI  11
SOUTH ST PAUL  SUNNY     27  16  63 W10       30.07F WCI  17
LAKE ELMO      FAIR      27  18  69 W10       30.07S WCI  17
$$
MNZ001>005-007-008-013>017-022>024-027-028-272100-
   Northwest Minnesota

CITY           SKY/WX    TMP DP  RH WIND       PRES   REMARKS
BEMIDJI        CLOUDY    17   5  61 SW6       29.97F WCI   8
HALLOCK          N/A     16  10  79 SW7       30.01S WCI   6
ROSEAU         PTSUNNY   16   9  73 W8        29.97F WCI   5
WARROAD        MOSUNNY   12   9  85 W10       29.96F WCI  -1
THIEF RVR FALL CLOUDY    12  10  92 SW8       30.00S WCI   1
CROOKSTON      CLOUDY    16  12  86 W6        30.04S WCI   7
FOSSTON        LGT SNOW  12   9  85 SW14      30.00R WCI  -3
DETROIT LAKES  FLURRIES  18  14  86 SW8       30.02S WCI   7
MOORHEAD       SUNNY     21  18  86 SW9       30.04F WCI  11
PARK RAPIDS    PTSUNNY   20   5  52 W10       29.98F WCI   9
MAHNOMEN       FLURRIES  14  10  83 SW14      30.00F WCI  -1
$$
MNZ006-009>011-018-025>026-272100-
   North Central Minnesota

CITY           SKY/WX    TMP DP  RH WIND       PRES   REMARKS
BAUDETTE       CLOUDY    13   5  70 VRB7      29.95F WCI   3
FLAG ISLAND    PTSUNNY   10   5  79 W7        29.94F WCI   0
INTL FALLS     CLOUDY    15   5  64 SW5       29.93F WCI   8
WASKISH        CLOUDY    12   7  79 SW3       29.97F
BIG FORK       CLOUDY    19   9  63 S5        29.94F WCI  13
LONGVILLE      CLOUDY    21   5  49 SW5       29.98F WCI  15
GRAND RAPIDS   CLOUDY    19   5  53 SW7       29.96F WCI  10
CRANE LAKE     SUNNY     16   3  57 W3        29.96F
ORR            SUNNY     19   3  49 W5        29.91F WCI  13
COOK           SUNNY     18   7  62 W7        29.94F WCI   8
WALKER         CLOUDY    19   3  51 SW6       29.98F WCI  10
$$
MNZ012-019>021-037-272100-
   Northeast Minnesota

CITY           SKY/WX    TMP DP  RH WIND       PRES   REMARKS
DULUTH         SUNNY     22   8  55 W10       29.94S WCI  11
ELY            SUNNY     18   7  62 SW6       29.92F WCI   9
HIBBING        SUNNY     21   5  50 VRB5      29.95F WCI  15
EVELETH        SUNNY     21   9  58 W9        29.95F WCI  11
DULUTH HARBOR  SUNNY     27  12  54 CALM      30.01S
TWO HARBORS    SUNNY     27  12  54 W8        29.93S WCI  18
SILVER BAY     SUNNY     25  10  54 W5        29.92S WCI  19
GRAND MARAIS     N/A     24  11  57 VRB6      29.93S WCI  17
G MARAIS ARPRT MOSUNNY   14   7  73 NW9       29.86S WCI   2
$$
MNZ029>031-032-039>041-046>048-054>057-064-272100-
   West Central Minnesota

CITY           SKY/WX    TMP DP  RH WIND       PRES   REMARKS
FERGUS FALLS   CLOUDY    19  10  68 SW10      30.08F WCI   8
WHEATON        CLOUDY    21  16  79 W9        30.09F WCI  11
MORRIS         SUNNY     19  12  73 SW9       30.07F WCI   9
ALEXANDRIA     SUNNY     19   9  65 SW10      30.04F WCI   7
ELBOW LAKE     CLOUDY    20  13  74 SW10      30.06F WCI   9
WADENA         CLOUDY    18   9  68 W7        30.01F WCI   8
GLENWOOD       SUNNY     18  10  73 SW10      30.07S WCI   6
APPLETON       SUNNY     19  10  68 SW8       30.10F WCI   9
BENSON         SUNNY     18   9  68 W7        30.10F WCI   8
ORTONVILLE     SUNNY     23  12  63 SW7       30.08F WCI  15
MADISON        SUNNY     23  12  63 W8        30.11F WCI  14
WILLMAR        FAIR      16   9  73 W10       30.11F WCI   3
$$
MNZ033>034-036-042>043-049>051-058-059-272100-
   Central Minnesota

CITY           SKY/WX    TMP DP  RH WIND       PRES   REMARKS
ST CLOUD       SUNNY     26   7  44 W7        30.06F WCI  18
SAUK CENTRE    FAIR      18   7  63 SW9       30.06F WCI   7
PAYNESVILLE    SUNNY     18   7  61 S9        30.08F WCI   7
AITKIN         MOSUNNY   27   7  43 SW7       29.99F WCI  19
PINE RIVER     CLOUDY    21   5  49 CALM      30.03F
BRAINERD       CLOUDY    22   4  46 SW13      30.02F WCI  10
STAPLES        CLOUDY    19   3  49 W7        30.02F WCI  10
LONG PRAIRIE   FAIR      21   7  53 SW8       30.04F WCI  12
LITTLE FALLS   PTSUNNY   23   5  46 W8        30.05F WCI  14
LITCHFIELD     SUNNY     19   9  63 W6        30.09S WCI  11
BUFFALO        SUNNY     22   9  57 W7        30.09F WCI  14
MAPLE LAKE     SUNNY     24  12  61 SW6       30.08F WCI  16
$$
MNZ037-044-045-052-053-272100-
   East Central Minnesota

CITY           SKY/WX    TMP DP  RH WIND       PRES   REMARKS
PRINCETON      SUNNY     25  12  58 W8        30.05S WCI  16
MORA           SUNNY     27  12  54 W7        30.04F WCI  19
CAMBRIDGE      SUNNY     27  14  59 W7        30.04R WCI  19
RUSH CITY      SUNNY     27  15  61 W8        30.04S WCI  18
MOOSE LAKE     SUNNY     27   9  46 W7        29.98S WCI  19
HINCKLEY       FAIR      28  14  54 SW9       30.02S WCI  20
CLOQUET        SUNNY     23   9  54 W9        29.96S WCI  13
MCGREGOR       SUNNY     27   9  46 W8        29.99F WCI  18
$$
MNZ071>073-080-081-089-090-097-098-272100-
   Southwest Minnesota

CITY           SKY/WX    TMP DP  RH WIND       PRES   REMARKS
MONTEVIDEO     SUNNY     21  16  79 W8        30.12F WCI  12
GRANITE FALLS  SUNNY     17  10  73 SW7       30.14F WCI   8
CANBY          SUNNY     21  12  70 W14G20    30.12F WCI   8
MARSHALL       SUNNY     19   9  63 W10       30.12F WCI   8
REDWOOD FALLS  SUNNY     16   8  71 W10       30.13F WCI   4
OLIVIA         SUNNY     19  10  68 W12       30.11S WCI   7
PIPESTONE      SUNNY     12   9  85 W9        30.10F WCI   0
WINDOM         SUNNY     18  10  73 W12       30.11F WCI   5
WORTHINGTON    SUNNY     18 -27  12 W10       30.12F WCI   6
JACKSON        SUNNY     19  10  68 W13       30.11F WCI   7
TRACY          SUNNY     19  13  76 W7        30.11F WCI  10
SLAYTON        SUNNY     14   9  81 W15       30.10F WCI  -1
$$
MNZ065>067-074>077-082>085-091>093-272100-
   South Central Minnesota

CITY           SKY/WX    TMP DP  RH WIND       PRES   REMARKS
MANKATO        SUNNY     18   9  68 W12       30.12S WCI   5
NEW ULM        SUNNY     12   7  79 W13       30.12F WCI  -3
ST JAMES       SUNNY     18   9  68 W10       30.14F WCI   6
FAIRMONT       SUNNY     19   7  58 NW12      30.11F WCI   7
GLENCOE        SUNNY     17  11  76 W6        30.10F WCI   9
FARIBAULT      PTSUNNY   19  16  86 W9        30.10S WCI   9
OWATONNA       PTSUNNY   19  12  73 W13       30.09F WCI   7
ALBERT LEA     PTSUNNY   18  16  93 W10       30.09F WCI   6
$$
MNZ078>079-086>088-094>096-272100-
   Southeast Minnesota

CITY           SKY/WX    TMP DP  RH WIND       PRES   REMARKS
ROCHESTER      CLOUDY    22  18  85 NW18      30.05F WCI   7
RED WING       CLOUDY    27  18  69 NW9       30.07S WCI  17
STANTON        PTSUNNY   24  16  72 W8        30.07S WCI  15
DODGE CENTER   CLOUDY    21  18  86 NW13      30.06F WCI   9
WINONA         CLOUDY    30  25  80 NW17      30.07S WCI  18
AUSTIN         PTSUNNY   19  16  86 W14G21    30.08S WCI   6
PRESTON        CLOUDY    22  18  87 W16       30.06F WCI   8
$$
ABBREVIATIONS USED IN REMARKS
   TC - TEMPERATURES IN CELSIUS
  WCI - WIND CHILL INDEX
   HX - HEAT INDEX
  VSB - VISIBILITY
$$



USA.gov is the U.S. government's official web portal to all federal, state and local government web resources and services.